Location: Gazon
(48.1318°N, 1.2708°W)
Time: 23:14:52
(UTC+00:00)

CENTAUR R/B - Pass Details

Date: 18 September 2020
Orbit: 755 x 1433 km, 63.4° (Epoch: 02 October)

Event Time Altitude Azimuth Distance (km) Brightness Sun altitude
Rises 21:13:00 0° 317° (NW) 4,157 7.0 -28.8°
Reaches altitude 10° 21:15:41 10° 314° (NW) 3,270 6.2 -29.1°
Maximum altitude 21:23:37 60° 238° (WSW) 1,558 3.5 -30.1°
Enters shadow 21:25:43 48° 191° (S) 1,760 3.5 -30.3°
